Temp_Advection
nan nan nan nan nan nan nan nan nan nan nan nan nan nan nan nan nan nan nan nan nan nan nan nan nan nan nan nan nan nan nan nan nan nan nan nan nan nan nan nan nan nan nan nan nan nan nan nan nan nan nan nan nan nan nan nan nan nan nan nan nan nan nan nan nan nan nan nan nan
nan -0 -0 0 0 0 0 0 1 1 2 2 2 2 2 2 1 1 2 3 3 4 4 3 2 1 0 0 1 2 2 1 1 1 1 1 2 2 1 -1 -1 -0 1 1 1 0 0 0 0 0 0 0 -0 -0 -0 -0 -0 -0 -0 -0 -0 -0 -0 0 0 0 0 -0 nan
nan -0 0 0 -0 -0 -0 -0 -0 0 1 2 2 2 2 2 2 2 3 3 4 4 3 2 1 1 0 1 1 2 2 1 1 1 1 2 2 1 -0 -1 -0 1 1 1 1 -0 -0 0 0 0 0 0 -0 -0 -0 -0 -0 -0 -0 -0 -0 -0 0 0 0 0 0 -0 nan
nan -0 -0 -0 -0 -0 -0 -0 -0 1 2 2 2 2 2 2 2 2 3 3 4 4 3 2 1 1 1 1 1 2 2 2 2 2 3 3 2 0 -1 -0 1 1 1 1 -0 -0 0 0 0 0 0 0 0 -0 -0 -0 -0 -0 -0 -0 -0 0 0 0 0 0 0 0 nan
nan -0 -0 0 0 1 0 0 0 1 2 2 2 2 2 2 2 2 3 3 3 3 3 2 1 1 1 1 1 2 2 2 3 3 4 3 1 -0 -0 1 2 2 1 -0 -0 -0 0 0 0 0 0 0 0 0 -0 -0 -0 -0 -0 -0 -0 -0 0 0 0 0 0 0 nan
nan 0 0 1 1 1 1 0 1 2 3 3 3 2 2 1 1 2 2 3 3 3 3 2 2 1 0 0 1 2 2 2 3 3 3 1 -0 -0 1 1 2 1 -0 -1 -0 0 0 0 0 0 0 0 0 0 0 -0 -0 -0 -0 -0 0 0 0 0 0 0 0 0 nan
nan 1 1 1 1 1 0 1 4 4 4 3 3 2 2 1 1 2 3 4 4 3 2 2 1 0 -0 0 2 2 2 3 3 2 1 -0 -1 -0 1 1 1 0 -0 -0 0 0 0 0 0 0 0 0 0 0 0 -0 -0 -0 -0 0 0 0 0 0 0 0 0 0 nan
nan 2 2 1 1 0 1 4 6 5 3 3 3 2 2 2 2 3 4 4 3 2 2 1 0 -1 -0 1 2 2 2 2 2 1 -0 -1 -0 1 1 1 0 -0 -0 0 0 0 0 0 0 0 0 0 0 0 0 -0 -0 -0 -0 0 0 0 0 0 0 -0 -0 0 nan
nan 2 2 1 1 0 2 6 6 4 1 2 2 2 2 2 3 3 3 3 3 2 2 1 -0 -0 1 2 2 2 2 2 1 -0 -1 -1 0 1 1 0 -0 -0 -0 -0 0 0 0 0 0 0 0 0 0 0 -0 -0 -0 -0 -0 -0 0 0 0 0 0 -0 -0 -0 nan
nan 1 1 1 0 1 4 7 5 2 0 0 1 2 2 3 3 3 3 3 3 2 1 0 0 1 2 2 2 2 2 1 0 -1 -1 0 1 1 0 -0 -0 -0 -0 -0 0 0 0 0 0 0 0 0 0 0 -0 -0 -0 -0 -0 -0 -0 0 0 0 0 -0 -0 -0 nan
nan 1 1 0 1 3 6 6 3 1 -0 1 2 2 2 2 2 3 3 3 3 2 1 1 1 1 1 1 1 2 2 0 -1 -1 0 1 1 1 0 -0 -0 -0 0 0 0 0 0 0 0 0 0 0 0 0 0 -0 -0 -0 -0 0 0 0 0 0 0 -0 -0 -0 nan
nan 1 1 1 3 6 6 3 1 0 0 1 2 2 2 2 3 3 3 3 2 2 2 2 2 2 1 1 1 2 1 -1 -1 0 1 1 1 0 0 0 0 0 0 0 0 0 0 0 0 0 0 0 0 0 0 0 0 0 0 0 0 0 0 0 0 -0 -0 -0 nan
nan 1 2 4 6 5 3 2 0 0 1 2 2 2 2 3 3 3 3 2 2 2 2 2 2 1 1 2 2 1 -0 -1 1 2 2 1 0 0 0 0 0 0 0 0 0 0 0 0 0 0 0 0 0 0 0 -0 0 0 0 0 0 0 0 0 -0 -0 -0 -0 nan
nan 3 4 5 5 3 1 1 1 1 2 1 1 2 2 3 3 3 3 2 2 2 2 2 1 1 2 3 3 1 0 1 2 2 1 0 0 -0 0 0 0 0 0 0 0 0 0 0 0 0 0 0 0 0 -0 -0 -0 -0 -0 -0 -0 -0 0 0 -0 -0 -0 -0 nan
nan 4 4 3 2 1 1 1 1 1 1 1 1 2 3 3 3 3 2 2 2 2 2 1 1 1 2 3 2 1 1 2 2 1 0 -0 -0 0 0 0 -0 -0 -0 0 0 0 0 0 0 0 0 0 0 0 -0 -0 -0 -0 -0 -0 -0 -0 0 0 0 0 0 0 nan
nan 3 2 1 1 1 2 2 1 0 0 1 2 2 3 3 2 2 2 2 2 2 1 1 0 0 1 1 1 1 2 1 1 0 -0 -0 0 0 0 -0 -0 -0 0 0 0 0 0 0 0 0 0 0 0 0 -0 -0 -0 -0 -0 -0 -0 -0 -0 0 0 0 0 0 nan
nan 2 1 1 1 2 1 1 -0 0 1 1 2 2 2 2 2 1 1 1 1 1 0 -0 -0 -1 -1 -1 0 1 1 0 -0 -0 -0 0 0 -0 -0 -0 -0 -0 0 0 0 0 0 0 0 0 0 0 0 0 -0 -0 -0 -0 -0 -0 -0 -0 0 0 0 0 0 0 nan
nan 1 1 1 1 1 1 -0 -0 0 1 2 2 2 2 2 1 1 1 1 1 -0 -1 -1 -1 -1 -1 -1 0 0 0 -0 -0 -0 -0 -0 -0 -0 -0 -0 -0 0 0 0 0 0 0 0 0 0 0 0 0 0 -0 -0 0 0 -0 -0 0 -0 0 0 0 0 0 0 nan
nan 1 1 1 1 1 0 0 1 2 2 2 2 2 2 1 1 1 0 1 0 -0 -1 -1 -1 -0 1 0 0 0 0 0 0 -0 -0 -0 -0 -0 -0 -0 0 0 0 0 0 0 0 0 0 0 0 0 0 0 0 -0 -0 -0 -0 -0 -0 -0 0 0 0 0 -0 -0 nan
nan 1 1 1 1 1 1 2 2 2 2 2 2 2 2 2 1 1 0 -0 -1 -1 -1 -1 0 1 1 1 1 0 0 0 -0 -0 -0 -0 -0 -0 0 0 0 0 0 1 0 0 0 0 0 0 0 0 0 0 -0 -0 -0 -0 -0 -0 -0 -0 -0 0 0 0 0 0 nan
nan 2 2 2 1 2 2 2 3 3 3 3 3 3 2 2 1 1 0 -0 -1 -1 -0 1 1 2 1 1 1 0 -0 -0 -0 -0 -0 -0 -0 0 0 0 0 0 1 0 0 0 0 0 0 0 0 0 0 -0 -0 -0 -0 -0 -0 -0 -0 -0 -0 -0 0 0 0 0 nan
nan 2 2 2 2 2 2 2 2 2 3 3 3 3 3 2 1 1 0 0 0 1 1 2 2 2 1 1 0 -0 -0 -0 0 0 0 0 0 0 0 0 0 0 0 0 0 0 0 0 0 0 0 0 0 -0 -0 -0 -0 -0 -0 -0 -0 -0 0 0 0 0 0 0 nan
nan 1 1 1 1 1 1 1 1 2 3 3 3 3 2 2 1 1 1 1 2 2 2 2 2 2 1 1 0 -0 -0 -0 -0 0 0 0 0 0 0 0 0 0 0 0 0 0 0 0 0 0 0 0 -0 -0 -0 -0 -0 -0 -0 -0 -0 0 0 0 0 0 0 0 nan
nan 1 1 1 0 0 0 0 1 1 2 2 2 1 1 1 1 1 1 2 2 2 2 2 1 1 1 0 0 0 0 0 -0 -0 -0 0 0 0 0 0 0 0 0 0 0 0 0 0 0 0 0 0 0 -0 -0 -0 -0 -0 -0 -0 0 0 0 0 0 0 0 0 nan
nan 0 0 -0 -0 -0 0 1 1 1 1 1 1 1 0 0 1 1 1 1 1 1 1 1 1 0 0 0 1 1 1 0 0 -0 -0 0 0 0 0 0 0 0 0 0 0 0 0 0 0 0 0 0 0 0 -0 -0 -0 -0 -0 -0 -0 0 0 0 0 0 0 0 nan
nan 0 0 0 0 1 1 1 1 2 2 2 1 1 0 1 1 1 1 1 1 1 1 1 0 0 0 1 1 0 0 0 0 0 0 0 0 0 0 0 0 0 0 0 0 0 0 0 0 0 0 -0 -0 0 0 0 -0 -0 0 0 -0 -0 -0 0 0 0 0 0 nan
nan 1 1 1 2 2 3 3 3 3 3 2 1 1 1 1 1 1 1 1 0 1 1 1 1 1 1 1 0 -0 -0 -0 0 0 0 0 0 0 0 0 0 0 0 0 0 0 0 0 0 0 -0 -0 -0 -0 -0 -0 0 0 0 0 0 -0 -0 -0 0 0 0 0 nan
nan 2 2 2 3 4 4 4 4 3 2 1 1 1 1 1 0 1 1 1 1 1 1 1 1 1 0 0 -0 -0 -0 -0 0 0 0 0 0 0 0 0 0 0 0 0 0 0 0 0 -0 -0 -0 -0 -0 -0 -0 -0 0 0 0 0 0 -0 -0 -0 -0 0 0 0 nan
nan 2 2 3 3 4 4 4 4 2 1 0 0 0 0 0 0 1 1 1 1 0 0 0 0 -0 -0 -0 -0 0 0 0 0 0 0 0 0 0 0 0 0 0 0 0 0 0 0 -0 -0 -0 -0 -0 -0 -0 -0 -0 -0 0 0 0 0 0 -0 -0 -0 0 0 0 nan
nan 2 2 2 3 3 3 3 2 1 0 0 0 0 0 0 1 1 1 0 0 -0 -0 -0 -0 -0 -0 -0 0 0 0 0 0 0 0 0 0 0 0 0 0 0 0 0 0 0 -0 -0 -0 -0 -0 -0 -0 -0 -0 -0 -0 -0 -0 0 0 0 -0 0 0 0 0 0 nan
nan 2 2 2 2 2 2 2 1 0 0 1 1 1 1 1 1 0 0 -0 -1 -0 -0 -0 -0 -0 -0 0 0 0 0 0 0 0 0 0 0 0 0 0 0 0 0 0 -0 -0 -0 -0 -0 -0 -0 -0 -0 -0 -0 -0 -0 -0 -0 0 0 0 0 0 0 0 0 1 nan
nan 2 2 2 2 2 1 1 1 1 1 1 1 1 1 1 0 -0 -0 -0 -1 -1 -0 -0 -0 -0 -0 -0 -0 0 0 0 0 0 0 0 0 0 0 0 0 0 0 -0 -0 -0 -0 -0 -0 -0 -0 -0 -0 -0 -0 -0 -0 -0 -0 -0 0 0 0 0 0 0 1 1 nan
nan 2 2 2 2 1 0 0 1 1 1 1 1 1 1 0 -0 -1 -1 -0 -0 -1 -1 -0 -0 -0 -0 0 0 0 0 1 0 0 0 0 0 0 0 0 0 0 0 -0 -0 -0 -0 -0 -0 -0 -0 -0 -0 -0 -0 -0 -0 -0 0 0 0 0 0 0 0 1 1 1 nan
nan 3 3 3 2 1 0 0 1 1 1 1 0 0 -0 -1 -1 -1 -1 -1 -0 -0 -0 0 0 0 1 1 1 1 1 1 0 0 0 0 0 -0 0 0 0 -0 -0 -0 -0 -0 -0 -0 -0 -0 -0 -0 -0 0 0 -0 -0 -0 0 0 0 0 0 0 0 1 1 1 nan
nan 3 3 2 1 0 -0 -0 -0 -0 -0 -0 -0 -1 -1 -1 -1 -1 -1 -1 -0 -0 0 0 1 1 1 1 1 1 1 0 0 0 0 -0 -0 -0 -0 -0 -0 -0 -0 -0 -0 -0 -0 -0 -0 -0 -0 -0 -0 -0 -0 -0 -0 -0 0 0 0 0 0 0 0 1 1 1 nan
nan 2 1 -0 -1 -1 -1 -1 -1 -0 -0 -0 -1 -1 -1 -1 -1 -1 -0 -0 -0 0 0 0 1 1 1 1 0 0 0 0 0 0 -0 -0 -0 -0 -0 -0 -0 -0 -0 -0 -0 -0 -0 -0 -0 -0 -0 -0 -0 -0 -0 -0 -0 -0 0 0 0 0 0 0 1 1 1 1 nan
nan -0 -2 -2 -2 -1 -0 -0 -0 -0 -0 -0 -0 -0 -0 -0 0 0 1 1 0 0 1 1 1 1 1 0 0 0 0 0 -0 0 0 -0 -0 -0 -0 -0 -0 -0 -0 -0 -0 -0 -0 -0 -0 -0 -0 -0 -0 -0 -0 -0 -0 -0 -0 0 0 0 0 0 1 1 1 1 nan
nan -1 -2 -2 -1 -1 -0 -0 -0 -0 -0 -0 0 0 1 1 1 1 1 1 1 1 1 1 0 0 0 0 0 -0 -0 -0 0 0 -0 -0 -0 -0 -0 -0 -0 -0 -0 -0 -0 -0 -0 -0 -0 -1 -0 -0 -0 -0 -0 -0 -0 -0 -0 -0 0 0 0 0 0 1 1 1 nan
nan -1 -1 -1 -1 -1 -1 -0 -0 -0 -0 -0 0 1 1 1 1 1 1 1 1 1 1 0 0 0 0 -0 -0 0 0 0 -0 -0 -0 -0 -0 -0 -0 0 0 0 0 -0 -0 -0 -0 -0 -0 -1 -1 -0 -0 -0 -0 -0 -0 -0 -0 -0 0 0 0 0 0 0 0 1 nan
nan 0 0 0 -0 -1 -1 -0 -0 0 0 0 0 1 1 1 0 0 0 0 0 0 0 0 0 0 0 0 0 0 0 -0 -0 -0 -0 0 0 0 0 0 0 0 0 0 0 -0 -0 -0 -0 -1 -1 -1 -0 -0 -0 -0 -0 -0 -0 -0 -0 0 0 0 0 0 0 0 nan
nan nan nan nan nan nan nan nan nan nan nan nan nan nan nan nan nan nan nan nan nan nan nan nan nan nan nan nan nan nan nan nan nan nan nan nan nan nan nan nan nan nan nan nan nan nan nan nan nan nan nan nan nan nan nan nan nan nan nan nan nan nan nan nan nan nan nan nan nan
Wind_Speed
49 49 50 49 49 48 48 47 46 46 45 44 43 43 42 40 38 37 37 38 40 41 42 42 42 42 41 40 38 36 33 31 29 29 29 28 27 26 25 24 24 22 20 18 17 16 15 14 11 8 6 5 4 4 4 5 6 7 8 8 8 8 8 9 8 9 9 9 10
48 49 49 49 49 48 48 47 46 46 45 44 43 42 40 38 36 35 36 37 39 40 41 41 41 40 40 39 38 36 34 31 30 29 29 28 27 26 25 25 24 22 20 18 18 17 15 13 10 8 6 5 4 4 4 5 6 7 7 7 8 8 9 8 9 9 10 10 11
47 48 48 49 49 49 48 47 46 45 45 44 42 40 38 36 34 34 35 37 38 39 39 40 40 40 39 39 38 36 34 32 30 30 29 28 27 26 26 25 24 22 20 19 19 17 14 12 10 7 6 4 4 4 5 5 6 7 7 7 8 8 8 8 9 9 10 10 11
47 47 48 49 49 49 48 47 46 45 44 44 42 39 37 35 34 34 34 35 37 38 39 39 39 39 39 39 38 36 34 32 30 29 28 27 27 26 26 24 22 21 21 20 18 16 13 11 9 7 6 4 4 4 5 5 6 6 7 7 8 8 8 8 9 9 10 10 11
46 47 47 48 49 49 48 47 46 45 44 43 41 39 36 34 33 33 34 35 36 37 37 38 39 39 40 39 38 37 34 32 30 28 28 27 27 26 25 23 22 22 21 20 17 15 13 11 9 7 5 4 4 4 4 5 6 6 7 8 8 8 8 9 9 9 10 10 11
46 46 47 47 48 47 47 47 46 45 44 43 41 38 36 34 33 33 34 35 35 36 36 37 39 40 40 40 38 36 34 31 30 28 28 28 28 27 25 24 23 22 20 18 16 14 12 10 8 7 5 4 4 4 4 5 6 7 7 8 8 8 9 9 9 10 10 11 11
46 46 46 47 47 46 46 46 45 44 43 42 40 37 35 33 33 33 33 33 33 34 36 38 40 41 41 40 38 36 33 31 30 29 29 29 28 27 26 25 23 21 19 17 15 13 11 10 8 6 5 4 4 4 4 5 6 7 7 8 8 8 9 9 10 10 11 11 12
45 45 46 46 46 45 45 45 43 42 41 40 37 35 33 32 32 32 32 32 33 34 36 39 41 42 41 40 37 35 33 32 31 31 31 30 29 28 26 24 22 20 18 15 14 12 11 9 7 6 5 4 4 4 5 5 6 7 8 8 9 9 9 10 10 11 11 11 12
44 45 45 45 44 44 45 44 41 39 38 37 35 33 32 31 31 31 31 31 32 34 36 39 41 41 40 38 36 35 33 33 33 33 32 31 29 27 25 23 21 19 16 14 13 11 10 9 7 6 5 4 4 4 5 6 7 7 8 9 9 10 10 10 11 11 11 12 12
44 44 44 43 43 44 44 41 39 37 36 34 32 31 30 30 30 30 30 30 32 34 37 39 40 40 38 36 36 35 34 34 34 34 32 30 28 25 23 21 19 17 15 14 13 11 10 8 7 5 5 4 4 4 5 6 6 7 8 9 10 10 11 11 11 12 12 12 13
44 44 43 42 43 43 42 38 36 35 34 32 30 29 29 29 29 29 29 30 32 35 37 38 39 38 38 37 36 35 35 35 35 33 31 28 26 24 22 20 18 16 15 14 12 11 9 7 6 5 4 4 4 4 5 6 7 8 8 9 10 10 11 11 12 12 12 13 13
43 42 42 42 43 42 38 35 33 33 32 30 28 28 28 28 29 29 30 32 34 36 37 37 38 38 38 37 37 36 35 35 34 32 29 27 25 23 21 18 17 16 15 13 12 10 8 7 6 5 4 4 4 4 5 6 7 8 9 9 10 10 10 11 12 12 13 13 14
41 41 42 42 41 38 34 32 32 31 30 28 27 27 27 28 29 30 31 33 35 36 37 37 37 38 38 38 37 36 36 35 33 30 28 26 24 22 20 18 17 16 14 13 11 9 8 7 5 5 4 4 5 5 6 7 7 8 9 10 10 10 11 11 12 13 13 14 14
40 41 41 40 37 34 31 30 30 29 28 28 27 28 28 29 30 30 32 34 36 37 37 37 37 37 37 38 37 37 36 34 32 29 28 26 24 22 20 19 17 16 14 12 10 9 7 6 5 5 4 5 5 6 7 7 8 9 10 10 11 11 11 12 12 13 13 13 14
40 40 39 36 33 31 30 30 29 29 28 28 28 29 29 30 30 31 33 34 36 36 36 37 37 37 37 37 37 37 35 33 31 29 27 25 23 21 20 18 17 15 13 11 10 8 7 6 5 5 5 5 6 7 8 8 9 10 10 11 11 11 12 12 13 13 13 13 14
39 38 35 32 30 30 30 30 29 29 29 29 29 30 30 31 31 32 33 35 36 36 36 36 36 37 37 38 37 36 34 32 30 28 25 23 22 20 19 18 16 14 12 10 9 7 6 6 5 5 5 6 6 7 8 9 9 10 10 11 11 12 12 12 13 13 14 14 14
37 34 31 29 29 29 30 30 30 29 29 29 30 30 31 32 32 33 34 35 36 36 36 36 36 37 38 38 37 35 33 30 28 25 23 22 21 20 18 17 15 13 11 9 8 7 6 5 5 5 5 6 7 7 8 9 10 10 10 11 11 12 12 13 13 14 14 15 15
33 31 29 29 29 30 30 30 29 29 29 30 30 31 31 32 33 34 34 35 35 36 36 35 35 36 37 37 35 33 30 27 25 24 22 21 20 19 17 15 13 11 10 8 7 6 5 5 5 5 5 6 7 8 9 9 10 10 11 11 12 12 13 13 14 14 15 15 16
30 29 29 30 30 30 30 29 29 29 29 30 30 31 32 33 34 35 35 35 35 35 34 34 33 34 35 35 33 31 28 26 24 23 22 21 20 18 15 13 12 10 9 8 7 6 5 5 5 5 6 6 7 8 9 9 10 10 11 12 12 13 13 14 14 15 15 16 16
30 30 31 31 30 30 29 29 28 28 29 30 31 31 33 33 34 35 35 35 34 33 32 31 31 32 34 33 31 29 27 25 24 23 22 20 18 16 14 12 10 9 8 7 6 5 5 5 5 6 6 7 8 8 9 10 10 11 12 12 13 14 14 14 15 15 16 16 17
31 32 32 31 30 29 28 28 28 28 29 30 31 32 33 34 34 34 34 33 32 30 29 29 30 32 33 32 30 28 27 26 24 22 20 18 16 14 12 11 9 8 8 7 6 5 5 5 6 6 7 7 8 8 9 10 11 11 12 13 14 14 14 15 15 15 16 16 17
32 32 31 30 29 28 28 28 28 29 30 31 32 33 33 33 33 32 31 30 29 28 28 28 30 32 32 31 29 28 27 25 23 21 19 17 15 13 11 10 9 8 7 6 5 5 5 6 6 7 7 8 8 9 10 10 11 12 12 13 14 14 14 14 15 15 16 16 17
33 32 31 30 29 28 28 28 29 30 30 31 32 32 32 32 31 30 28 27 27 27 28 29 31 31 30 30 29 28 26 24 22 19 17 15 13 12 10 9 8 7 6 6 5 5 6 6 7 7 8 8 9 9 10 11 12 12 13 13 13 13 14 14 15 15 16 16 17
32 31 30 29 28 28 28 28 29 30 31 31 32 32 31 30 29 27 27 26 27 28 29 31 31 30 29 29 27 26 24 22 20 18 16 14 12 11 9 8 7 7 6 6 6 6 6 7 7 8 8 9 9 10 11 11 12 12 13 13 13 14 14 14 15 16 16 16 17
31 30 29 28 27 27 28 29 30 31 31 32 32 31 30 29 28 27 27 27 28 30 31 31 31 30 29 27 25 23 21 19 18 16 14 12 11 10 8 8 7 6 6 6 6 7 7 8 8 8 9 9 10 10 11 11 12 12 13 13 14 14 15 15 16 16 17 17 17
29 28 27 26 26 27 28 29 30 31 32 32 31 30 29 29 28 28 29 30 31 31 31 31 30 29 27 25 23 21 19 17 15 14 12 11 10 9 8 7 7 6 6 6 7 7 8 8 9 9 9 10 10 10 11 11 12 13 13 14 14 15 15 16 17 17 17 17 17
28 27 27 26 27 28 29 30 31 31 31 31 30 30 29 29 29 30 31 32 32 31 30 30 28 27 25 23 21 19 18 16 14 12 11 9 8 8 7 7 7 6 7 7 8 8 9 9 9 9 10 10 10 11 11 12 12 13 14 14 15 16 16 17 17 18 18 18 17
27 27 27 27 28 29 30 30 30 30 29 29 29 29 29 29 30 31 32 32 32 31 29 28 26 25 23 21 20 18 16 15 13 12 10 9 8 7 7 7 7 7 7 8 8 8 9 9 10 10 10 11 11 11 12 12 13 13 14 15 15 16 17 18 18 19 19 18 17
28 28 28 29 29 30 30 29 29 29 28 27 27 28 28 29 30 31 31 31 30 29 28 27 25 23 22 20 19 17 15 14 12 11 9 8 7 7 7 7 7 7 8 8 8 8 9 9 10 10 11 11 11 12 12 13 13 14 15 15 16 17 18 18 19 19 19 18 17
29 29 29 29 30 29 29 29 28 28 27 27 27 28 29 30 31 31 30 30 29 28 27 26 24 22 20 19 17 15 14 12 11 9 8 7 6 6 7 7 7 8 8 8 8 8 9 9 10 10 11 12 12 13 13 14 14 15 15 16 17 18 18 18 18 18 18 18 17
30 29 30 30 30 29 29 29 29 28 28 28 29 30 31 31 31 31 30 30 29 28 26 24 22 20 18 16 14 13 12 10 9 8 7 6 6 7 7 7 7 7 8 8 8 8 9 9 10 10 11 12 13 13 14 14 15 16 16 17 17 18 18 18 18 18 17 17 16
30 30 29 30 30 30 30 30 29 29 29 30 31 31 32 32 32 32 31 30 28 26 24 21 19 17 16 14 13 11 10 8 7 7 6 6 7 7 7 7 7 7 7 7 8 8 9 10 10 11 12 13 13 14 14 15 16 16 17 17 17 17 17 17 17 17 17 16 15
29 29 29 30 31 31 31 31 30 31 32 32 33 33 33 33 33 32 30 28 25 22 20 17 16 14 13 12 11 9 8 7 6 6 7 7 8 8 7 7 6 7 7 8 8 9 9 10 11 12 13 13 14 14 15 16 16 16 17 17 17 17 16 16 16 16 15 14 14
29 29 30 30 31 31 31 32 32 33 33 33 33 33 33 32 31 29 26 23 20 18 16 14 13 12 11 10 9 8 7 7 7 7 7 8 8 8 8 7 7 7 8 8 8 9 10 11 12 13 14 14 14 15 15 16 16 16 16 16 16 16 16 15 15 15 14 14 14
29 30 31 32 32 33 33 33 34 34 34 34 33 32 31 29 27 25 22 19 17 15 14 13 11 10 9 9 8 7 7 7 7 8 8 8 8 8 7 7 8 8 8 8 9 10 11 12 13 14 14 15 15 15 15 16 16 16 16 16 15 15 15 15 15 14 14 14 14
31 32 33 34 34 34 34 34 34 34 33 33 32 31 29 26 24 21 19 18 16 15 13 12 11 10 9 9 9 9 8 8 8 7 7 7 7 7 8 8 8 8 8 8 9 10 11 12 13 14 15 15 15 15 16 16 16 16 15 15 15 15 15 15 14 14 14 14 14
31 33 34 34 35 35 35 35 34 33 33 31 30 28 26 24 21 19 17 15 14 13 12 11 11 11 11 10 10 9 8 8 7 7 6 5 6 7 7 7 7 8 8 9 10 11 12 13 14 15 15 15 16 15 15 15 15 15 15 15 15 15 15 15 14 14 14 14 15
31 32 33 34 34 34 34 33 32 32 30 29 26 24 22 20 18 16 15 13 13 13 12 12 12 11 11 10 9 8 8 7 6 4 4 5 5 5 6 6 7 8 9 9 10 11 12 13 14 15 16 16 16 16 15 15 15 15 15 14 14 14 14 14 14 14 14 15 16
30 31 32 33 33 33 32 31 29 28 26 25 23 21 19 18 17 16 14 13 12 12 12 12 11 10 9 8 7 6 5 4 3 3 4 4 3 4 5 6 7 8 9 10 10 11 12 13 14 15 16 16 16 15 15 15 15 15 14 14 14 13 13 14 14 14 15 15 16
30 31 31 31 30 29 28 27 26 24 22 21 20 19 18 17 17 16 15 14 12 11 10 9 8 8 7 6 4 3 2 3 3 3 2 3 4 5 6 7 8 8 9 10 10 11 12 13 14 15 16 16 16 15 15 15 14 14 13 13 13 13 13 13 14 14 15 15 15
29 29 29 28 27 26 25 24 23 21 20 19 19 19 18 17 16 15 14 13 11 10 8 7 6 4 3 3 2 2 2 2 1 1 2 4 5 6 7 8 8 9 9 10 10 11 12 13 14 15 16 16 16 15 15 14 14 13 13 13 13 12 13 13 13 13 13 13 12
Wind_Direction
219 220 221 222 222 222 222 223 225 226 228 228 228 229 229 228 227 227 228 227 225 223 220 218 218 217 217 218 216 212 206 203 204 205 206 207 208 207 204 202 204 207 209 212 217 221 223 224 222 222 226 239 263 289 310 325 335 338 338 336 332 327 324 320 315 311 307 304 304
218 220 221 222 222 223 223 223 225 226 228 229 230 231 231 230 229 229 228 226 224 221 218 216 215 214 215 215 213 208 203 201 204 206 207 206 205 202 200 200 203 206 209 214 219 220 219 218 218 220 227 242 267 292 312 324 334 338 336 332 327 323 320 315 311 308 307 306 307
218 219 220 221 222 222 222 223 225 226 228 229 230 231 231 231 230 229 228 225 222 219 216 214 213 212 212 212 208 203 200 201 204 207 208 205 200 196 196 198 201 205 211 216 218 217 214 215 216 221 229 247 273 298 315 325 334 336 332 325 321 318 315 310 307 307 307 306 306
218 219 220 221 222 223 223 224 226 227 229 230 230 230 229 229 229 228 226 223 220 217 215 213 211 210 209 208 204 200 198 200 205 208 206 200 194 192 193 197 201 207 213 216 214 212 211 214 217 222 232 253 280 301 316 325 330 330 325 320 316 314 310 307 306 305 304 303 304
218 219 220 222 223 223 224 225 226 228 229 230 230 229 227 226 226 225 224 221 218 216 214 212 209 208 206 205 201 197 197 199 202 202 197 191 188 189 193 198 205 210 213 211 208 208 210 214 218 223 234 255 281 299 311 320 324 323 319 318 316 313 310 307 305 304 303 301 301
218 219 220 221 222 222 223 225 226 228 229 230 229 227 226 225 224 224 222 220 217 215 212 209 207 206 204 202 199 196 195 195 195 192 188 185 187 190 196 201 207 209 207 204 204 207 211 215 219 226 237 257 278 294 306 316 319 319 318 315 314 313 311 306 304 303 302 300 300
218 219 219 220 220 221 222 223 225 226 228 229 228 227 226 225 225 223 221 219 216 213 209 206 205 204 203 201 197 194 192 190 188 185 184 186 191 196 201 204 204 202 200 200 202 207 211 216 221 229 241 260 275 290 301 311 316 317 317 314 312 310 307 303 302 302 301 300 299
217 218 218 219 219 220 221 222 224 225 225 226 226 225 225 225 224 223 220 217 214 211 207 205 204 204 203 200 195 191 188 185 182 182 185 191 197 201 203 201 198 195 195 198 203 207 212 217 224 234 248 266 280 292 302 312 317 317 316 313 311 308 305 302 301 301 300 300 301
214 215 216 217 218 219 220 222 224 225 225 224 223 223 223 224 223 221 218 215 212 209 206 204 204 204 203 199 193 188 185 182 181 184 190 196 200 201 198 194 192 191 194 199 204 209 213 220 229 240 256 273 287 298 306 313 316 316 314 312 310 308 306 304 303 302 301 302 303
211 212 213 214 216 218 220 223 226 227 225 223 222 221 221 221 221 219 217 214 210 206 204 204 204 203 201 196 190 185 183 183 185 189 193 197 197 195 192 190 191 193 197 202 207 211 216 224 235 248 262 278 291 300 305 310 312 312 310 310 309 307 306 305 305 304 304 305 305
211 211 212 213 214 217 220 224 225 225 223 220 218 218 218 218 218 217 214 210 206 203 203 204 204 202 199 194 188 184 184 186 189 192 194 193 191 189 189 190 193 198 203 207 209 213 219 230 242 256 269 279 288 294 299 303 306 308 307 307 306 306 304 304 305 306 306 307 308
209 210 211 212 214 217 220 222 222 220 217 214 213 214 215 215 215 213 210 206 203 202 202 202 202 200 197 192 187 185 186 189 191 192 190 187 185 186 188 192 197 202 206 208 210 215 223 234 247 261 273 279 285 289 294 299 303 304 305 305 305 305 304 304 305 307 308 309 311
208 208 209 211 214 218 221 219 217 213 209 208 208 211 212 212 211 208 205 203 201 200 199 200 200 199 195 190 186 186 188 190 190 188 185 184 184 186 190 195 200 203 205 207 210 216 225 237 250 264 275 282 286 290 295 299 302 305 307 308 308 308 308 308 308 309 310 311 313
206 207 208 211 215 218 217 214 210 206 203 203 206 208 209 208 205 203 202 201 199 198 198 198 199 198 194 190 187 187 188 188 186 184 183 184 186 190 193 197 200 202 204 207 211 218 228 240 253 267 278 285 290 295 300 304 307 309 311 312 312 312 311 311 310 310 311 312 312
205 207 210 213 214 214 212 206 202 200 199 201 205 207 206 203 201 199 198 198 198 198 198 198 197 196 193 190 188 187 186 184 182 182 183 186 190 193 195 196 198 200 203 208 214 222 233 245 258 271 282 290 296 301 305 308 311 313 314 314 314 313 312 311 310 310 310 311 311
205 207 208 208 209 208 204 200 198 198 199 201 204 205 203 199 197 196 196 196 196 197 197 197 196 194 191 189 188 186 184 181 182 183 186 189 192 193 193 194 196 199 203 209 218 228 240 252 265 276 286 294 300 303 307 309 311 312 313 313 312 312 311 310 310 310 310 311 311
202 202 202 202 202 201 199 198 198 199 200 201 203 202 200 197 194 194 194 195 195 195 195 196 195 192 190 187 186 183 181 181 182 185 188 190 191 190 191 192 195 200 206 213 224 235 246 256 268 279 289 295 299 302 305 307 308 309 310 310 311 311 311 311 311 312 312 312 312
194 195 196 196 197 197 198 199 200 201 201 201 201 200 198 196 193 193 194 195 196 196 195 195 194 192 189 185 182 181 180 181 182 184 186 187 188 189 190 193 197 202 209 218 228 238 248 257 268 279 288 292 296 299 302 304 306 307 308 309 310 311 312 312 312 313 313 313 312
189 191 191 192 194 196 198 200 201 201 201 200 200 198 197 195 194 193 193 195 196 197 196 196 194 191 186 182 179 178 179 180 181 182 184 185 187 189 191 195 200 206 213 221 230 237 247 256 267 277 284 289 294 298 302 305 307 308 309 310 311 312 312 313 313 312 312 312 311
186 187 188 190 192 195 197 199 200 200 200 200 199 197 195 195 195 194 193 194 196 197 198 198 193 187 181 178 176 175 176 178 179 181 183 185 187 189 193 198 203 210 216 223 228 236 246 257 270 278 285 291 296 300 304 308 310 311 312 312 313 313 313 312 311 311 310 310 309
184 185 186 188 191 193 195 196 197 197 197 197 196 195 194 194 194 194 194 194 195 197 198 196 188 180 175 173 173 173 174 176 179 181 183 185 187 190 194 199 205 212 218 223 229 239 252 264 275 283 290 295 299 304 307 310 312 313 313 314 313 312 311 310 309 309 308 307 305
182 183 185 187 189 191 192 193 194 194 194 194 193 193 193 193 193 194 194 193 193 193 191 186 178 173 171 171 171 172 174 176 178 181 183 185 187 191 195 201 207 214 220 226 236 248 262 273 281 287 292 297 302 306 309 311 313 313 313 313 311 310 308 308 307 307 305 303 301
181 182 184 186 188 189 190 191 191 191 190 190 190 191 191 191 192 192 191 189 187 184 179 174 171 169 169 171 172 174 174 176 178 181 183 185 188 192 197 204 210 217 224 233 244 257 268 277 284 290 294 299 304 308 310 313 313 313 311 309 307 306 306 306 305 304 302 300 298
180 182 184 186 187 189 190 191 191 190 189 188 189 190 190 190 189 187 185 182 178 173 169 167 167 168 170 172 174 175 176 177 179 180 183 185 189 194 200 207 214 222 230 242 253 264 273 279 285 291 297 303 307 311 313 314 314 312 309 306 305 304 304 304 303 303 301 299 297
181 183 185 187 189 191 193 193 191 190 189 189 189 189 188 187 185 183 179 175 171 167 166 166 167 169 171 173 174 174 175 177 180 182 183 186 191 197 204 212 219 227 237 249 260 269 277 283 289 295 301 307 312 315 316 314 312 308 306 305 305 304 304 304 304 304 302 300 297
181 184 186 189 192 193 193 193 192 191 190 189 188 186 185 184 182 179 174 170 167 166 166 167 169 170 171 171 171 171 172 176 180 182 185 188 194 201 209 216 224 233 243 255 266 274 282 287 294 300 306 311 315 317 316 312 308 306 305 306 306 306 306 306 306 306 304 301 298
182 184 187 190 192 192 192 192 191 189 188 186 184 183 182 181 178 174 170 166 165 166 167 168 168 168 167 167 167 169 171 175 178 182 186 191 198 206 214 222 230 241 252 263 273 280 287 294 301 308 313 316 318 317 313 309 307 307 307 307 308 308 308 308 308 307 305 302 298
181 184 186 188 188 188 188 188 187 185 184 183 182 181 179 177 173 169 166 164 164 165 166 166 164 163 163 164 167 170 173 176 178 181 186 192 201 211 221 230 240 251 262 272 280 288 296 304 311 316 319 320 319 316 312 309 309 309 309 310 310 310 310 310 309 308 305 301 298
181 183 184 184 184 184 183 182 181 180 179 180 179 177 174 170 167 164 162 161 162 162 162 161 160 160 162 164 167 171 174 177 180 184 189 196 207 219 229 239 249 261 271 280 288 297 307 315 319 320 320 319 317 314 312 312 312 312 312 311 311 311 311 310 309 307 304 300 296
181 182 182 181 180 178 177 175 175 175 176 176 173 169 165 162 160 159 158 159 159 160 159 158 159 160 163 165 169 173 177 181 185 190 197 206 217 226 235 246 258 269 280 289 299 309 317 321 322 320 318 315 314 314 314 314 314 314 313 313 312 312 311 310 308 305 301 298 295
181 181 180 178 176 173 171 171 171 171 170 167 163 160 157 156 156 156 157 158 158 158 158 158 159 161 163 167 173 178 184 190 195 201 209 218 227 235 243 254 267 279 289 301 312 320 323 323 320 316 314 313 314 315 316 316 315 314 314 313 312 312 311 309 306 302 298 295 294
180 179 178 175 172 169 168 167 167 165 162 158 156 154 153 154 155 156 157 157 158 158 159 160 163 166 170 176 183 190 196 202 208 214 222 229 235 242 250 262 275 288 303 316 324 326 324 320 317 314 314 315 316 317 316 316 315 314 313 313 312 311 310 307 303 299 295 292 291
178 177 175 171 168 165 164 163 161 158 155 153 152 152 153 154 155 156 158 159 160 161 163 167 172 177 184 190 196 200 204 208 214 222 230 238 244 250 258 271 288 305 319 328 329 326 321 318 316 315 315 316 318 317 316 315 314 313 313 312 312 310 308 305 300 296 293 290 288
174 173 169 166 163 162 160 159 156 153 151 150 150 152 154 156 157 159 160 162 165 168 172 177 183 188 194 199 201 201 203 207 216 225 235 244 254 263 275 292 311 324 331 333 329 323 320 317 316 316 316 317 318 317 316 314 314 313 313 313 312 309 306 302 297 294 290 288 286
168 165 162 160 160 159 157 155 153 150 149 150 151 154 157 159 162 164 167 170 174 178 182 186 189 193 194 194 194 195 201 209 218 229 241 254 268 284 303 322 332 337 336 332 326 322 319 318 317 317 317 317 317 316 315 315 314 313 313 313 311 308 304 299 295 291 288 286 284
164 161 159 159 158 157 154 152 150 149 150 152 155 158 161 164 167 170 174 179 183 185 186 187 186 184 183 183 188 195 205 215 227 241 256 275 297 317 331 339 339 337 333 328 324 322 320 319 317 316 317 317 317 317 316 316 315 314 314 313 311 307 302 298 292 288 285 283 283
164 162 161 159 157 154 151 149 149 150 153 156 159 162 164 166 168 171 175 178 179 178 175 174 172 174 178 184 193 202 214 228 241 258 283 314 336 343 342 338 334 330 328 326 324 322 321 319 317 316 317 318 318 318 318 318 317 315 314 312 310 306 302 298 292 286 282 281 282
165 164 161 157 153 150 148 148 150 153 156 159 160 161 162 162 161 161 162 164 164 163 163 165 170 176 184 194 206 218 231 245 261 290 330 354 358 349 335 327 325 325 326 326 324 322 320 319 318 318 318 319 320 320 320 319 317 316 314 312 309 305 301 298 295 290 285 284 285
164 161 156 152 148 146 146 148 151 155 157 158 157 155 153 152 150 148 148 152 156 161 165 171 178 187 198 210 224 238 253 278 314 349 2 0 344 327 320 320 322 324 325 324 323 321 320 320 320 320 320 321 322 321 320 319 317 315 313 311 309 305 302 299 298 296 294 293 293
157 153 149 145 143 143 145 149 152 154 154 153 150 147 145 145 144 145 148 154 162 169 177 184 193 204 218 232 249 272 310 353 10 8 351 326 315 315 318 320 322 323 322 322 321 322 322 323 323 322 322 322 322 322 321 319 317 315 313 311 309 307 305 302 302 303 304 304 302
147 144 141 140 141 143 146 148 149 149 147 145 143 143 143 145 146 150 155 163 171 179 188 197 207 223 243 267 300 337 5 19 13 332 309 309 314 318 320 321 322 321 321 322 323 324 326 326 325 324 323 322 322 322 321 319 317 315 314 313 312 311 311 310 310 311 313 313 312
Height
1447 1449 1452 1453 1455 1457 1458 1459 1460 1461 1462 1462 1463 1464 1465 1466 1468 1469 1470 1471 1472 1472 1473 1475 1476 1477 1478 1480 1482 1483 1485 1486 1488 1489 1491 1492 1493 1495 1497 1498 1500 1502 1502 1503 1503 1503 1504 1504 1504 1505 1505 1506 1506 1505 1505 1504 1504 1504 1503 1503 1503 1503 1503 1503 1503 1503 1502 1502 1502
1446 1448 1450 1452 1454 1455 1457 1458 1459 1460 1461 1461 1462 1463 1464 1465 1467 1467 1468 1469 1470 1471 1472 1473 1474 1476 1477 1479 1481 1482 1483 1485 1486 1487 1489 1490 1492 1493 1495 1497 1499 1500 1501 1502 1502 1502 1503 1503 1503 1504 1504 1504 1504 1504 1504 1503 1503 1503 1503 1502 1502 1502 1502 1502 1502 1502 1501 1501 1501
1445 1447 1449 1451 1452 1453 1455 1456 1457 1458 1459 1460 1461 1462 1463 1464 1465 1466 1467 1468 1468 1470 1471 1472 1473 1474 1476 1477 1479 1481 1482 1483 1484 1486 1487 1489 1491 1492 1494 1496 1497 1499 1500 1501 1501 1502 1502 1502 1502 1503 1503 1503 1503 1503 1503 1502 1502 1502 1502 1502 1502 1502 1502 1501 1501 1501 1500 1500 1500
1444 1446 1447 1449 1450 1452 1453 1454 1456 1457 1457 1458 1459 1461 1462 1463 1464 1465 1466 1467 1467 1468 1470 1471 1472 1473 1475 1476 1478 1480 1481 1482 1484 1485 1487 1488 1490 1492 1494 1495 1497 1498 1499 1500 1500 1500 1500 1500 1501 1502 1502 1502 1502 1502 1502 1501 1501 1501 1501 1501 1501 1501 1501 1500 1500 1500 1499 1499 1499
1443 1445 1446 1447 1449 1450 1452 1453 1454 1455 1456 1457 1457 1459 1460 1461 1462 1463 1464 1465 1466 1467 1468 1470 1471 1472 1473 1475 1477 1478 1480 1482 1483 1485 1487 1488 1490 1492 1494 1495 1497 1498 1499 1499 1499 1499 1499 1500 1500 1501 1501 1501 1501 1501 1500 1500 1500 1500 1500 1500 1500 1500 1500 1499 1499 1499 1498 1498 1498
1441 1443 1445 1447 1448 1449 1451 1452 1452 1453 1454 1455 1456 1457 1458 1459 1460 1461 1462 1463 1465 1466 1467 1469 1470 1471 1472 1473 1476 1477 1479 1481 1482 1485 1487 1488 1490 1492 1493 1495 1496 1497 1498 1498 1498 1498 1498 1499 1499 1500 1500 1500 1500 1500 1500 1499 1499 1499 1499 1499 1499 1499 1498 1498 1498 1498 1497 1497 1497
1440 1442 1443 1445 1447 1448 1449 1450 1450 1451 1452 1452 1454 1455 1456 1457 1459 1460 1461 1462 1464 1465 1467 1468 1469 1469 1471 1472 1474 1476 1478 1479 1481 1483 1486 1488 1489 1491 1492 1493 1495 1497 1497 1497 1497 1497 1498 1498 1498 1499 1499 1499 1499 1499 1499 1498 1498 1498 1498 1498 1498 1498 1497 1497 1497 1497 1497 1496 1496
1439 1440 1442 1443 1445 1446 1447 1448 1448 1448 1449 1451 1452 1454 1455 1456 1457 1459 1460 1462 1463 1464 1466 1467 1467 1468 1470 1472 1473 1475 1477 1478 1480 1482 1485 1487 1488 1490 1491 1493 1494 1496 1497 1497 1497 1497 1497 1497 1498 1498 1498 1498 1498 1498 1497 1497 1497 1497 1497 1497 1497 1497 1497 1496 1496 1496 1495 1495 1495
1437 1439 1441 1442 1443 1445 1445 1446 1446 1448 1449 1450 1451 1453 1454 1455 1457 1458 1459 1461 1462 1463 1464 1465 1466 1467 1469 1471 1473 1474 1476 1477 1479 1482 1484 1486 1487 1489 1491 1492 1494 1495 1496 1496 1496 1496 1497 1497 1497 1497 1497 1497 1497 1497 1497 1496 1496 1496 1496 1496 1496 1496 1495 1495 1495 1494 1494 1494 1493
1435 1437 1439 1441 1442 1443 1443 1444 1445 1447 1449 1450 1451 1452 1453 1455 1456 1457 1458 1460 1461 1462 1463 1464 1465 1467 1469 1471 1472 1473 1475 1477 1479 1481 1483 1485 1487 1489 1491 1492 1493 1494 1494 1495 1495 1496 1496 1496 1496 1496 1496 1496 1496 1496 1496 1495 1495 1495 1495 1495 1495 1494 1494 1494 1493 1493 1493 1492 1492
1434 1436 1437 1439 1440 1441 1441 1442 1445 1447 1449 1450 1451 1452 1453 1454 1455 1457 1458 1459 1460 1462 1462 1463 1465 1466 1468 1470 1471 1472 1474 1476 1479 1481 1482 1484 1486 1488 1489 1491 1492 1493 1493 1494 1494 1495 1495 1495 1495 1495 1495 1495 1495 1495 1495 1495 1495 1494 1494 1494 1494 1493 1493 1492 1492 1492 1491 1491 1491
1433 1435 1436 1437 1438 1439 1440 1442 1444 1447 1448 1450 1450 1451 1452 1453 1455 1456 1457 1458 1459 1460 1462 1462 1464 1465 1467 1468 1470 1472 1474 1476 1478 1480 1482 1484 1485 1487 1488 1489 1491 1492 1493 1493 1494 1494 1494 1495 1495 1495 1494 1494 1494 1494 1494 1494 1494 1494 1493 1493 1493 1492 1492 1492 1491 1491 1490 1490 1489
1432 1433 1434 1435 1436 1437 1439 1442 1444 1446 1448 1448 1449 1450 1451 1452 1454 1455 1457 1457 1458 1460 1461 1462 1463 1465 1466 1467 1469 1472 1474 1476 1478 1480 1481 1483 1484 1486 1487 1488 1489 1491 1492 1492 1493 1493 1493 1494 1494 1494 1494 1493 1493 1493 1493 1493 1493 1493 1492 1492 1492 1491 1491 1490 1490 1489 1489 1488 1488
1431 1432 1432 1433 1435 1437 1439 1441 1444 1446 1447 1447 1448 1449 1450 1452 1453 1455 1456 1457 1458 1459 1460 1461 1462 1464 1466 1467 1469 1472 1474 1476 1478 1479 1481 1482 1483 1484 1486 1487 1488 1490 1491 1491 1492 1492 1492 1493 1493 1493 1493 1493 1492 1492 1492 1492 1492 1492 1491 1491 1490 1490 1489 1489 1488 1488 1487 1487 1487
1429 1430 1431 1433 1435 1437 1439 1441 1443 1445 1445 1446 1446 1447 1449 1451 1452 1454 1455 1456 1457 1458 1459 1460 1462 1464 1466 1467 1470 1472 1474 1476 1477 1479 1481 1482 1483 1484 1485 1486 1487 1488 1489 1490 1491 1491 1492 1492 1492 1492 1492 1492 1492 1492 1491 1491 1491 1490 1490 1489 1489 1488 1488 1488 1487 1487 1487 1486 1486
1428 1429 1431 1433 1435 1437 1439 1440 1442 1443 1444 1444 1445 1447 1448 1450 1452 1453 1454 1455 1456 1457 1458 1459 1461 1463 1465 1467 1470 1472 1474 1476 1477 1479 1481 1482 1483 1484 1485 1486 1487 1488 1488 1489 1490 1490 1491 1491 1491 1491 1491 1491 1491 1490 1490 1490 1489 1489 1489 1488 1488 1487 1487 1487 1486 1486 1485 1485 1484
1427 1429 1431 1433 1435 1436 1438 1439 1440 1441 1442 1443 1444 1446 1447 1449 1451 1452 1453 1454 1455 1456 1457 1459 1460 1462 1464 1467 1469 1472 1473 1476 1477 1479 1481 1482 1483 1484 1485 1486 1486 1487 1488 1488 1489 1489 1489 1490 1490 1490 1490 1490 1490 1489 1489 1489 1488 1488 1487 1487 1487 1487 1486 1486 1485 1484 1484 1483 1483
1427 1429 1431 1433 1434 1435 1436 1437 1438 1440 1441 1442 1444 1445 1447 1448 1449 1451 1452 1453 1454 1455 1456 1458 1459 1461 1463 1466 1469 1471 1473 1475 1477 1479 1481 1482 1483 1484 1485 1485 1486 1487 1487 1487 1488 1488 1488 1488 1488 1488 1489 1489 1489 1489 1488 1488 1487 1487 1487 1486 1486 1485 1485 1484 1484 1483 1482 1482 1482
1428 1430 1431 1432 1433 1434 1435 1436 1437 1439 1440 1442 1443 1445 1446 1447 1449 1450 1451 1452 1453 1454 1456 1457 1459 1461 1463 1466 1469 1471 1473 1475 1477 1479 1481 1482 1483 1484 1484 1485 1485 1486 1486 1487 1487 1487 1487 1487 1487 1487 1488 1488 1488 1488 1487 1487 1487 1486 1486 1485 1485 1484 1483 1483 1482 1482 1481 1481 1480
1428 1430 1431 1431 1432 1433 1434 1436 1437 1438 1440 1442 1443 1444 1446 1447 1448 1449 1450 1452 1453 1454 1455 1457 1458 1461 1463 1466 1468 1470 1473 1475 1477 1479 1481 1482 1482 1483 1483 1484 1484 1485 1485 1486 1486 1486 1486 1486 1487 1487 1487 1487 1487 1487 1486 1486 1485 1485 1484 1484 1483 1483 1482 1482 1481 1481 1480 1479 1479
1428 1429 1430 1430 1431 1432 1434 1435 1437 1438 1440 1441 1442 1444 1445 1446 1447 1449 1450 1451 1452 1453 1455 1456 1458 1461 1463 1465 1468 1470 1472 1475 1477 1479 1480 1481 1482 1482 1483 1483 1484 1484 1485 1485 1485 1485 1485 1485 1486 1486 1486 1486 1486 1485 1485 1485 1484 1484 1483 1482 1482 1482 1481 1480 1480 1479 1479 1478 1477
1427 1428 1429 1430 1431 1432 1433 1435 1437 1438 1440 1441 1442 1444 1445 1446 1447 1449 1450 1451 1452 1453 1455 1457 1459 1461 1463 1465 1468 1470 1472 1474 1477 1478 1479 1480 1481 1482 1482 1482 1483 1483 1484 1484 1484 1484 1484 1484 1485 1485 1485 1485 1484 1484 1484 1483 1483 1482 1482 1481 1481 1480 1480 1479 1478 1478 1477 1477 1476
1426 1427 1428 1429 1430 1432 1433 1435 1437 1438 1440 1441 1443 1444 1445 1447 1448 1449 1451 1452 1452 1453 1455 1458 1460 1463 1465 1467 1468 1470 1472 1474 1476 1477 1479 1479 1480 1481 1481 1482 1482 1482 1483 1483 1483 1483 1483 1483 1483 1483 1483 1483 1483 1483 1482 1482 1481 1481 1480 1480 1479 1479 1478 1478 1477 1477 1476 1475 1474
1425 1426 1427 1428 1430 1431 1433 1435 1436 1438 1440 1441 1443 1444 1446 1447 1449 1450 1451 1452 1453 1455 1457 1459 1462 1464 1466 1468 1469 1470 1472 1473 1475 1477 1478 1479 1479 1480 1480 1481 1481 1482 1482 1482 1482 1482 1482 1482 1482 1482 1482 1482 1482 1481 1481 1480 1480 1479 1479 1478 1478 1477 1477 1477 1476 1475 1475 1474 1473
1424 1425 1427 1428 1429 1431 1432 1434 1436 1437 1439 1441 1442 1444 1446 1448 1449 1450 1451 1452 1454 1456 1458 1460 1462 1464 1467 1468 1470 1470 1471 1473 1475 1476 1477 1478 1478 1479 1479 1480 1480 1481 1481 1481 1482 1482 1482 1482 1482 1481 1481 1481 1481 1480 1479 1479 1478 1478 1477 1477 1477 1476 1476 1475 1474 1474 1473 1472 1472
1424 1425 1427 1428 1429 1431 1432 1433 1435 1437 1438 1440 1442 1444 1446 1447 1448 1450 1451 1452 1455 1457 1459 1460 1462 1464 1466 1468 1469 1470 1471 1473 1475 1476 1477 1477 1477 1478 1479 1479 1480 1480 1480 1480 1481 1481 1481 1481 1480 1480 1480 1480 1479 1479 1478 1477 1477 1477 1476 1475 1475 1474 1474 1473 1473 1472 1471 1471 1470
1424 1425 1427 1427 1429 1430 1432 1433 1435 1436 1438 1440 1442 1444 1445 1447 1448 1449 1451 1452 1455 1457 1459 1461 1463 1464 1466 1467 1469 1470 1472 1473 1475 1476 1476 1476 1477 1477 1478 1478 1479 1479 1479 1480 1480 1480 1480 1479 1479 1479 1478 1478 1477 1477 1477 1476 1476 1475 1475 1474 1473 1473 1472 1472 1471 1470 1470 1469 1468
1424 1425 1426 1427 1428 1430 1432 1433 1435 1436 1438 1440 1442 1443 1445 1446 1448 1450 1452 1453 1455 1457 1460 1461 1463 1464 1466 1468 1469 1471 1472 1473 1474 1475 1475 1476 1476 1477 1477 1477 1478 1478 1479 1479 1479 1479 1478 1478 1477 1477 1477 1476 1476 1476 1475 1475 1474 1474 1473 1472 1472 1471 1471 1470 1469 1468 1468 1467 1466
1424 1425 1426 1427 1428 1430 1432 1433 1435 1437 1439 1441 1442 1443 1445 1447 1449 1451 1453 1454 1456 1458 1460 1461 1463 1465 1467 1468 1470 1471 1472 1473 1473 1474 1475 1475 1476 1476 1477 1477 1477 1477 1478 1478 1478 1477 1477 1477 1476 1475 1475 1475 1475 1474 1474 1473 1473 1472 1472 1471 1470 1470 1469 1468 1467 1467 1466 1465 1464
1424 1424 1426 1427 1428 1430 1432 1434 1435 1437 1439 1441 1442 1444 1446 1448 1450 1452 1454 1456 1458 1459 1461 1462 1464 1466 1467 1468 1469 1470 1471 1472 1473 1473 1474 1475 1475 1476 1476 1476 1477 1477 1477 1477 1476 1476 1475 1475 1474 1474 1474 1473 1473 1473 1472 1472 1471 1471 1470 1470 1469 1468 1467 1467 1466 1465 1464 1463 1463
1423 1424 1426 1427 1429 1431 1432 1434 1435 1437 1439 1441 1443 1445 1447 1449 1451 1454 1456 1458 1459 1461 1462 1463 1465 1466 1467 1468 1469 1470 1471 1472 1472 1473 1473 1474 1475 1475 1475 1476 1476 1476 1475 1475 1475 1474 1474 1473 1473 1473 1472 1472 1472 1471 1471 1470 1470 1469 1469 1468 1467 1467 1466 1465 1464 1463 1462 1462 1461
1423 1424 1426 1427 1429 1431 1432 1434 1436 1438 1440 1442 1443 1445 1447 1450 1452 1455 1457 1459 1460 1461 1462 1463 1464 1465 1466 1467 1468 1469 1470 1471 1472 1472 1473 1473 1474 1475 1475 1475 1475 1474 1474 1474 1473 1473 1472 1472 1472 1472 1471 1471 1470 1470 1469 1469 1468 1468 1467 1467 1466 1465 1464 1463 1463 1462 1461 1460 1460
1424 1425 1426 1427 1429 1431 1433 1435 1436 1438 1440 1442 1444 1446 1449 1452 1454 1456 1458 1459 1460 1461 1461 1462 1463 1464 1465 1467 1467 1469 1470 1470 1471 1472 1472 1473 1473 1474 1474 1474 1473 1473 1472 1472 1472 1472 1471 1471 1471 1470 1470 1469 1469 1468 1468 1467 1467 1466 1466 1465 1464 1464 1463 1462 1461 1460 1460 1459 1458
1425 1426 1427 1428 1430 1432 1433 1435 1437 1438 1440 1442 1445 1447 1450 1453 1455 1457 1458 1459 1459 1460 1461 1462 1463 1464 1465 1467 1467 1468 1469 1470 1471 1472 1472 1472 1472 1472 1472 1472 1472 1471 1471 1471 1471 1471 1470 1470 1469 1469 1468 1468 1468 1467 1467 1466 1465 1465 1464 1463 1463 1462 1461 1460 1460 1459 1458 1457 1457
1426 1427 1428 1429 1431 1432 1434 1435 1437 1439 1442 1444 1447 1449 1452 1454 1455 1457 1457 1459 1460 1461 1462 1462 1464 1465 1466 1467 1468 1469 1470 1471 1471 1471 1471 1471 1471 1471 1470 1470 1470 1470 1470 1470 1470 1469 1469 1468 1468 1467 1467 1467 1466 1466 1465 1465 1464 1463 1463 1462 1462 1461 1460 1459 1458 1457 1457 1456 1456
1427 1427 1429 1430 1431 1433 1434 1436 1438 1441 1443 1446 1448 1451 1453 1454 1456 1457 1458 1459 1460 1461 1462 1462 1464 1465 1466 1467 1468 1469 1470 1470 1470 1470 1470 1470 1469 1469 1469 1469 1469 1469 1469 1469 1468 1468 1468 1467 1467 1466 1466 1465 1465 1464 1464 1463 1462 1462 1461 1461 1460 1459 1458 1458 1457 1456 1456 1455 1454
1428 1429 1429 1431 1432 1434 1436 1437 1440 1442 1445 1447 1450 1452 1453 1454 1455 1457 1458 1459 1460 1461 1462 1463 1464 1466 1467 1468 1468 1469 1469 1469 1469 1469 1469 1468 1468 1468 1468 1468 1468 1468 1468 1468 1467 1467 1467 1466 1465 1465 1464 1464 1463 1463 1462 1462 1461 1460 1460 1459 1459 1458 1457 1457 1456 1455 1454 1454 1453
1429 1430 1431 1433 1434 1436 1438 1439 1442 1444 1447 1449 1451 1452 1453 1454 1455 1457 1458 1459 1460 1462 1463 1464 1465 1466 1467 1468 1468 1468 1468 1468 1468 1468 1467 1467 1467 1467 1467 1467 1467 1467 1467 1467 1466 1466 1465 1465 1464 1463 1463 1462 1462 1462 1461 1460 1460 1459 1458 1458 1457 1457 1456 1455 1455 1454 1453 1452 1452
1431 1433 1434 1436 1437 1438 1440 1442 1444 1447 1449 1450 1452 1452 1454 1455 1456 1457 1459 1461 1462 1463 1464 1465 1466 1466 1467 1467 1467 1467 1467 1467 1467 1467 1467 1467 1467 1467 1467 1467 1467 1466 1466 1466 1465 1465 1464 1464 1463 1462 1462 1461 1461 1460 1459 1459 1458 1458 1457 1457 1456 1455 1455 1454 1453 1452 1452 1451 1451
1434 1436 1437 1438 1440 1441 1443 1445 1447 1448 1450 1451 1452 1453 1455 1456 1457 1459 1460 1462 1463 1463 1464 1465 1465 1466 1466 1466 1466 1466 1466 1466 1466 1466 1466 1467 1467 1466 1466 1466 1466 1465 1465 1465 1464 1464 1463 1462 1462 1461 1460 1460 1459 1459 1458 1458 1457 1457 1456 1455 1455 1454 1453 1453 1452 1451 1451 1450 1449
1437 1438 1440 1441 1442 1444 1445 1447 1448 1450 1451 1452 1453 1455 1456 1457 1459 1460 1461 1462 1462 1463 1464 1464 1464 1464 1465 1465 1465 1465 1465 1465 1465 1466 1466 1466 1466 1465 1465 1465 1465 1465 1464 1464 1463 1463 1462 1462 1461 1460 1459 1458 1458 1457 1457 1456 1456 1455 1455 1454 1453 1452 1452 1451 1451 1450 1449 1448 1447